Weather History for Newton, KS

Change the Weather History Date:

Friday, March 16, 2012

  Actual Average Record
Temperature  
Mean Temperature 67 °F -  
Max Temperature 75 °F 52 °F 75 °F (2003)
Min Temperature 59 °F 31 °F -5 °F (2014)
Cooling Degree Days 2    
Growing Degree Days 17 (Base 50)    
Moisture  
Dew Point 58 °F    
Average Humidity 76    
Maximum Humidity 88    
Minimum Humidity 61    
Precipitation  
Precipitation 0.00 in - - ()
Sea Level Pressure  
Sea Level Pressure 29.95 in    
Wind  
Wind Speed 15 mph (South)    
Max Wind Speed 29 mph    
Max Gust Speed 36 mph    
Visibility 8 miles    
Events      
Averages and records for this station are not official NWS values.
T = Trace of Precipitation, MM = Missing Value Source: NWS Daily Summary

Daily Weather History Graph

Daily Weather History Graph

Search for Another Location

Airport:

Trip Planner

Search our weather history database for the weather conditions in past years. The results will help you decide how hot, cold, wet, or windy it might be!

Date:

Astronomy

Mar. 16, 2012 Rise Set
Actual Time 7:37 AM CDT 7:37 PM CDT
Civil Twilight 7:11 AM CDT 8:04 PM CDT
Nautical Twilight 6:41 AM CDT 8:34 PM CDT
Astronomical Twilight 6:10 AM CDT 9:05 PM CDT
Moon 3:52 AM CDT (3/16) 2:04 PM CDT (3/16)
Length of Visible Light 12h 52m
Length of Day
11h 59m
Waning Crescent, 32% of the Moon is Illuminated
Mar 16
Waning Crescent
Mar 22
New
Mar 30
First Quarter
Apr 6
Full
Apr 13
Last Quarter

Hourly Weather History & Observations

Time (CDT) Temp. Dew Point Humidity Pressure Visibility Wind Dir Wind Speed Gust Speed Precip Events Conditions
12:15 AM 64.4 °F 57.2 °F 77% 29.99 in 10.0 mi SSW 12.7 mph - N/A   Clear
12:35 AM 64.4 °F 57.2 °F 77% 29.99 in 10.0 mi SSW 12.7 mph - N/A   Clear
12:55 AM 64.4 °F 57.2 °F 77% 29.99 in 10.0 mi SSW 12.7 mph - N/A   Clear
1:15 AM 64.4 °F 57.2 °F 77% 29.99 in 10.0 mi SSW 12.7 mph - N/A   Clear
1:35 AM 64.4 °F 57.2 °F 77% 29.99 in 10.0 mi SSW 12.7 mph - N/A   Clear
1:55 AM 64.4 °F 57.2 °F 77% 29.98 in 10.0 mi SSW 12.7 mph - N/A   Clear
2:15 AM 64.4 °F 57.2 °F 77% 29.98 in 10.0 mi SSW 12.7 mph - N/A   Clear
2:35 AM 62.6 °F 57.2 °F 82% 29.98 in 10.0 mi SSW 11.5 mph - N/A   Clear
2:55 AM 62.6 °F 57.2 °F 82% 29.98 in 10.0 mi SSW 11.5 mph - N/A   Clear
3:35 AM 60.8 °F 57.2 °F 88% 29.97 in 10.0 mi South 11.5 mph - N/A   Clear
3:55 AM 60.8 °F 57.2 °F 88% 29.97 in 10.0 mi SSW 11.5 mph - N/A   Clear
4:15 AM 60.8 °F 55.4 °F 82% 29.97 in 10.0 mi South 10.4 mph - N/A   Clear
4:35 AM 60.8 °F 55.4 °F 82% 29.96 in 9.0 mi South 10.4 mph - N/A   Clear
4:55 AM 60.8 °F 55.4 °F 82% 29.96 in 8.0 mi South 11.5 mph - N/A   Clear
5:15 AM 60.8 °F 55.4 °F 82% 29.96 in 8.0 mi South 12.7 mph - N/A   Clear
5:35 AM 60.8 °F 55.4 °F 82% 29.96 in 7.0 mi South 11.5 mph - N/A   Clear
5:55 AM 60.8 °F 55.4 °F 82% 29.96 in 5.0 mi South 11.5 mph - N/A   Clear
6:15 AM 60.8 °F 55.4 °F 82% 29.96 in 5.0 mi South 10.4 mph - N/A   Clear
6:35 AM 59.0 °F 55.4 °F 88% 29.97 in 3.0 mi South 9.2 mph - N/A   Clear
6:55 AM 59.0 °F 55.4 °F 88% 29.97 in 2.5 mi South 11.5 mph - N/A   Mostly Cloudy
7:15 AM 60.8 °F 57.2 °F 88% 29.97 in 2.0 mi South 13.8 mph - N/A   Overcast
7:35 AM 60.8 °F 57.2 °F 88% 29.97 in 1.2 mi South 11.5 mph - N/A   Overcast
7:55 AM 60.8 °F 57.2 °F 88% 29.97 in 2.0 mi South 11.5 mph - N/A   Overcast
8:15 AM 60.8 °F 57.2 °F 88% 29.97 in 2.5 mi South 11.5 mph - N/A   Overcast
8:35 AM 60.8 °F 57.2 °F 88% 29.98 in 1.5 mi South 13.8 mph - N/A   Overcast
8:55 AM 62.6 °F 57.2 °F 82% 29.98 in 1.8 mi South 13.8 mph - N/A   Overcast
9:15 AM 62.6 °F 57.2 °F 82% 29.98 in 2.5 mi South 15.0 mph 19.6 mph N/A   Overcast
9:35 AM 62.6 °F 59.0 °F 88% 29.98 in 4.0 mi South 18.4 mph 21.9 mph N/A   Overcast
9:55 AM 62.6 °F 57.2 °F 82% 29.99 in 3.0 mi SSW 15.0 mph - N/A   Overcast
10:15 AM 62.6 °F 57.2 °F 82% 29.99 in 3.0 mi SSW 17.3 mph 20.7 mph N/A   Overcast
10:35 AM 62.6 °F 57.2 °F 82% 29.99 in 4.0 mi SSW 17.3 mph 24.2 mph N/A   Overcast
10:55 AM 62.6 °F 57.2 °F 82% 29.99 in 7.0 mi SSW 17.3 mph - N/A   Overcast
11:15 AM 62.6 °F 57.2 °F 82% 29.98 in 8.0 mi SSW 18.4 mph 23.0 mph N/A   Overcast
11:35 AM 64.4 °F 57.2 °F 77% 29.98 in 9.0 mi South 20.7 mph 25.3 mph N/A   Overcast
12:15 PM 66.2 °F 60.8 °F 83% 29.96 in 8.0 mi South 15.0 mph 21.9 mph N/A   Overcast
12:35 PM 68.0 °F 59.0 °F 73% 29.96 in 10.0 mi South 17.3 mph 25.3 mph N/A   Mostly Cloudy
12:55 PM 69.8 °F 59.0 °F 68% 29.95 in 10.0 mi South 19.6 mph - N/A   Scattered Clouds
1:15 PM 71.6 °F 59.0 °F 64% 29.95 in 10.0 mi South 19.6 mph - N/A   Scattered Clouds
1:35 PM 71.6 °F 59.0 °F 64% 29.94 in 10.0 mi SSW 21.9 mph - N/A   Partly Cloudy
1:55 PM 71.6 °F 59.0 °F 64% 29.93 in 10.0 mi South 18.4 mph 24.2 mph N/A   Scattered Clouds
2:15 PM 71.6 °F 59.0 °F 64% 29.92 in 10.0 mi South 20.7 mph 26.5 mph N/A   Mostly Cloudy
2:35 PM 71.6 °F 59.0 °F 64% 29.92 in 10.0 mi South 23.0 mph 26.5 mph N/A   Overcast
2:55 PM 71.6 °F 59.0 °F 64% 29.90 in 10.0 mi South 24.2 mph 28.8 mph N/A   Overcast
3:15 PM 71.6 °F 59.0 °F 64% 29.90 in 10.0 mi South 24.2 mph 29.9 mph N/A   Mostly Cloudy
3:35 PM 71.6 °F 59.0 °F 64% 29.89 in 10.0 mi South 27.6 mph 31.1 mph N/A   Mostly Cloudy
3:55 PM 73.4 °F 59.0 °F 61% 29.89 in 10.0 mi South 26.5 mph 32.2 mph N/A   Mostly Cloudy
4:15 PM 75.2 °F 60.8 °F 61% 29.88 in 10.0 mi SSW 28.8 mph 34.5 mph N/A   Mostly Cloudy
4:35 PM 73.4 °F 60.8 °F 65% 29.88 in 10.0 mi South 27.6 mph 34.5 mph N/A   Mostly Cloudy
4:55 PM 73.4 °F 59.0 °F 61% 29.88 in 10.0 mi South 28.8 mph 34.5 mph N/A   Scattered Clouds
5:15 PM 73.4 °F 60.8 °F 65% 29.87 in 10.0 mi South 28.8 mph 32.2 mph N/A   Scattered Clouds
5:35 PM 73.4 °F 60.8 °F 65% 29.87 in 10.0 mi South 25.3 mph 31.1 mph N/A   Mostly Cloudy
5:55 PM 73.4 °F 60.8 °F 65% 29.86 in 10.0 mi South 24.2 mph 33.4 mph N/A   Partly Cloudy
6:15 PM 73.4 °F 60.8 °F 65% 29.87 in 10.0 mi South 26.5 mph 29.9 mph N/A   Scattered Clouds
6:35 PM 73.4 °F 60.8 °F 65% 29.87 in 10.0 mi South 20.7 mph 32.2 mph N/A   Partly Cloudy
6:55 PM 71.6 °F 59.0 °F 64% 29.87 in 10.0 mi South 23.0 mph 35.7 mph N/A   Partly Cloudy
7:15 PM 71.6 °F 59.0 °F 64% 29.87 in 10.0 mi South 20.7 mph 27.6 mph N/A   Clear
7:35 PM 69.8 °F 59.0 °F 68% 29.87 in 10.0 mi South 19.6 mph 24.2 mph N/A   Clear
7:55 PM 69.8 °F 59.0 °F 68% 29.88 in 10.0 mi South 19.6 mph 24.2 mph N/A   Clear
8:35 PM 69.8 °F 59.0 °F 68% 29.89 in 10.0 mi South 16.1 mph - N/A   Mostly Cloudy
8:55 PM 69.8 °F 59.0 °F 68% 29.89 in 10.0 mi South 18.4 mph - N/A   Scattered Clouds
9:15 PM 69.8 °F 59.0 °F 68% 29.90 in 10.0 mi South 18.4 mph 24.2 mph N/A   Clear
9:35 PM 68.0 °F 59.0 °F 73% 29.90 in 10.0 mi South 18.4 mph 24.2 mph N/A   Clear
9:55 PM 68.0 °F 59.0 °F 73% 29.90 in 10.0 mi South 18.4 mph 26.5 mph N/A   Clear
10:15 PM 66.2 °F 59.0 °F 78% 29.91 in 10.0 mi South 19.6 mph 26.5 mph N/A   Clear
10:55 PM 66.2 °F 59.0 °F 78% 29.91 in 10.0 mi South 20.7 mph 26.5 mph N/A   Overcast
11:15 PM 66.2 °F 59.0 °F 78% 29.91 in 10.0 mi South 17.3 mph 26.5 mph N/A   Mostly Cloudy
11:35 PM 66.2 °F 57.2 °F 73% 29.91 in 10.0 mi South 19.6 mph 24.2 mph N/A   Scattered Clouds
11:55 PM 66.2 °F 57.2 °F 73% 29.90 in 10.0 mi South 16.1 mph - N/A   Clear